sat.trackr.live / text

‹ back to catalog

COSMOS 2531 (RODNIK-S *)

NORAD 43752 · 2018-097B

PAYLOAD ACTIVE UNKNOWN

§ Identity

Operator
Country
CIS
Launch date
2018-11-30
Launch site
PLMSC
Launch vehicle
Mass (kg)
RCS (m²)

External: N2YO · Heavens-Above · Gunter

§ Orbital elements

Epoch: 2026-05-25T05:11:30.784992Z

Period
115.86 min
Inclination
82.5192°
Eccentricity
0.0017999
Mean motion
12.42912879 rev/d
Perigee alt
1,480.1 km
Apogee alt
1,508.4 km
Semi-major
7,872.4 km
B*
9.1445e-4
RAAN
237.5856°
Arg perigee
105.4835°
Mean anomaly
254.8233°
Rev number
33,945

§ Raw data

COSMOS 2531 (RODNIK-S *)1 43752U 18097B   26145.21632853  .00000137  00000+0  91445-3 0  99902 43752  82.5192 237.5856 0017999 105.4835 254.8233 12.42912879339453

JSON: /api/v1/satellites/43752 · /tle

For live sub-satellite position, see the globe view (requires WebGL).

§ Visibility from observer

Set your observer location to see the next 7 days of passes ≥ 10°. The values pass through the URL so the page stays shareable.

No JS? Fill the form by hand. The geolocation button needs JavaScript.

§ Radio — SatNOGS DB

ModeDescriptionDownlinkUplink
FM UHF Unknown 387.175 MHz
FM UHF Unknown 388.687 MHz

2 transmitters · refreshed weekly from db.satnogs.org